Starlink 5553

operational
NORAD ID: 56333 Int'l Des: 2023-058 Owner: SPXS Country: US Constellation: starlink
LEOCIRCULARRETROGRADESSO

About Starlink 5553

Description loading...

Live Position

Loading 3D Globe...

Upcoming Passes

Altitude History

Altitude vs Time

uPlot chart will show altitude changes over time

Two-Line Element Set

1 56333U 23058S 26067.48980780 -.00009151 00000-0 -63001-3 0 9994
2 56333 97.6045 69.9974 0001454 89.7463 270.3931 15.05696222158016
Epoch: Mar 8, 2026 • Age: 18 hours

Current Status

Altitude 552.6 km
Velocity 7.59 km/s
Sub-Earth Point 28.85°N, 14.35°W
Launch Date Apr 27, 2023
Age 2.8 years
Type internet

Technical Details

Classification Payload
Mass 300.00 kg
Dry Mass 260.00 kg
Total Mass 300.00 kg
Length 0.20 m
Diameter 2.80 m
Span 9.00 m
Shape Box + pan
Manufacturer SPXS
Bus Type Starlink
Phase Status In Orbit
Owner/State SPXS/US

Large Constellations

Loading constellations...